RYR588 EGCC-EIDW

Flight info

Callsign RYR588
Flight time 0h 36m
Altitude 18000
Route EKLAD1Y EKLAD Y53 WAL L10 PENIL L28 LELDO M145 BAGSO BAGSO4L
Aircraft B738/M-V/N

Departure

Time 2026-05-06 16:09
Airport Manchester Airport (EGCC)

Arrival

Time 2026-05-06 16:46
Airport Dublin Airport (EIDW)
Time Latitude Longitude Altitude Speed Heading
2026-05-06 15:18 53.36042 -2.26893 248 ft 0 kts 313°
2026-05-06 15:28 53.36042 -2.26892 248 ft 0 kts 313°
2026-05-06 15:49 53.36032 -2.26874 248 ft 3 kts 319°
2026-05-06 15:49 53.36016 -2.26853 248 ft 3 kts 318°
2026-05-06 15:49 53.36002 -2.26831 249 ft 3 kts 301°
2026-05-06 15:50 53.35999 -2.26809 249 ft 3 kts 240°
2026-05-06 15:50 53.36006 -2.26791 249 ft 2 kts 231°
2026-05-06 15:50 53.36016 -2.26771 249 ft 1 kts 231°
2026-05-06 15:50 53.36017 -2.26769 249 ft 2 kts 231°
2026-05-06 16:02 53.35986 -2.26824 249 ft 11 kts 218°
2026-05-06 16:02 53.35917 -2.26830 248 ft 10 kts 180°
2026-05-06 16:02 53.35860 -2.26924 247 ft 14 kts 230°
2026-05-06 16:02 53.35803 -2.27075 245 ft 17 kts 231°
2026-05-06 16:03 53.35735 -2.27216 243 ft 14 kts 230°
2026-05-06 16:03 53.35664 -2.27363 241 ft 18 kts 232°
2026-05-06 16:03 53.35578 -2.27543 239 ft 21 kts 231°
2026-05-06 16:03 53.35499 -2.27703 237 ft 19 kts 231°
2026-05-06 16:04 53.35457 -2.27883 236 ft 13 kts 267°
2026-05-06 16:04 53.35401 -2.28010 236 ft 15 kts 224°
2026-05-06 16:04 53.35315 -2.28151 232 ft 18 kts 222°
2026-05-06 16:04 53.35222 -2.28320 230 ft 19 kts 230°
2026-05-06 16:05 53.35144 -2.28481 228 ft 18 kts 231°
2026-05-06 16:05 53.35075 -2.28625 226 ft 14 kts 231°
2026-05-06 16:05 53.35016 -2.28737 225 ft 11 kts 226°
2026-05-06 16:05 53.34959 -2.28839 223 ft 13 kts 226°
2026-05-06 16:06 53.34897 -2.28946 222 ft 13 kts 226°
2026-05-06 16:06 53.34821 -2.29054 220 ft 12 kts 206°
2026-05-06 16:06 53.34798 -2.29065 221 ft 0 kts 193°
2026-05-06 16:06 53.34796 -2.29066 221 ft 1 kts 192°
2026-05-06 16:07 53.34790 -2.29067 219 ft 1 kts 189°
2026-05-06 16:07 53.34788 -2.29068 219 ft 1 kts 188°
2026-05-06 16:07 53.34723 -2.29050 223 ft 17 kts 156°
2026-05-06 16:07 53.34692 -2.28905 226 ft 14 kts 52°
2026-05-06 16:08 53.34754 -2.28779 221 ft 14 kts 52°
2026-05-06 16:08 53.34804 -2.28675 224 ft 6 kts 51°
2026-05-06 16:08 53.34806 -2.28671 224 ft 2 kts 51°
2026-05-06 16:08 53.34998 -2.28273 228 ft 91 kts 51°
2026-05-06 16:09 53.35570 -2.27084 244 ft 168 kts 51°
2026-05-06 16:09 53.36386 -2.25423 888 ft 196 kts 51°
2026-05-06 16:09 53.37308 -2.23758 2113 ft 192 kts 41°
2026-05-06 16:09 53.38595 -2.22825 2581 ft 214 kts
2026-05-06 16:10 53.39925 -2.23709 3271 ft 212 kts 317°
2026-05-06 16:10 53.40700 -2.25808 3942 ft 214 kts 300°
2026-05-06 16:10 53.41533 -2.27906 4605 ft 218 kts 308°
2026-05-06 16:10 53.42492 -2.29906 5265 ft 223 kts 311°
2026-05-06 16:11 53.43533 -2.31915 5938 ft 232 kts 312°
2026-05-06 16:11 53.44606 -2.34002 6646 ft 241 kts 306°
2026-05-06 16:11 53.45466 -2.36477 7320 ft 251 kts 297°
2026-05-06 16:11 53.46271 -2.39137 8015 ft 260 kts 297°
2026-05-06 16:12 53.46921 -2.41967 8685 ft 270 kts 279°
2026-05-06 16:12 53.46878 -2.45183 9419 ft 278 kts 261°
2026-05-06 16:12 53.46521 -2.48372 10104 ft 284 kts 259°
2026-05-06 16:12 53.46137 -2.51632 10735 ft 284 kts 260°
2026-05-06 16:13 53.45763 -2.54882 11382 ft 284 kts 261°
2026-05-06 16:13 53.45396 -2.58136 12043 ft 284 kts 261°
2026-05-06 16:13 53.45033 -2.61397 12722 ft 284 kts 261°
2026-05-06 16:13 53.44669 -2.64669 13412 ft 287 kts 261°
2026-05-06 16:14 53.44302 -2.67993 14101 ft 293 kts 261°
2026-05-06 16:14 53.43928 -2.71369 14739 ft 297 kts 261°
2026-05-06 16:14 53.43547 -2.74806 15391 ft 302 kts 261°
2026-05-06 16:14 53.43160 -2.78292 16064 ft 306 kts 261°
2026-05-06 16:15 53.42766 -2.81825 16750 ft 311 kts 261°
2026-05-06 16:15 53.42366 -2.85405 17445 ft 314 kts 261°
2026-05-06 16:15 53.41959 -2.89039 17997 ft 324 kts 261°
2026-05-06 16:15 53.41529 -2.92872 18024 ft 344 kts 260°
2026-05-06 16:16 53.41075 -2.96914 18046 ft 362 kts 260°
2026-05-06 16:16 53.40596 -3.01152 18047 ft 379 kts 260°
2026-05-06 16:16 53.40094 -3.05579 18047 ft 393 kts 260°
2026-05-06 16:16 53.39782 -3.10154 18011 ft 396 kts 272°
2026-05-06 16:17 53.40247 -3.14676 18030 ft 395 kts 287°
2026-05-06 16:17 53.41390 -3.18861 18015 ft 396 kts 302°
2026-05-06 16:17 53.42971 -3.22624 18029 ft 396 kts 305°
2026-05-06 16:17 53.44601 -3.26349 18016 ft 396 kts 305°
2026-05-06 16:18 53.46234 -3.30077 18013 ft 396 kts 305°
2026-05-06 16:18 53.47829 -3.33758 18015 ft 396 kts 305°
2026-05-06 16:18 53.49463 -3.37570 18017 ft 396 kts 304°
2026-05-06 16:18 53.51040 -3.41280 18021 ft 396 kts 304°
2026-05-06 16:19 53.52656 -3.45103 18023 ft 396 kts 304°
2026-05-06 16:19 53.54252 -3.48890 18022 ft 396 kts 304°
2026-05-06 16:19 53.55819 -3.52614 18021 ft 396 kts 304°
2026-05-06 16:19 53.57413 -3.56405 18022 ft 396 kts 304°
2026-05-06 16:20 53.59001 -3.60188 18025 ft 396 kts 304°
2026-05-06 16:20 53.60591 -3.63984 18023 ft 396 kts 303°
2026-05-06 16:20 53.62017 -3.67935 18020 ft 395 kts 295°
2026-05-06 16:20 53.63076 -3.72196 18028 ft 394 kts 291°
2026-05-06 16:21 53.64071 -3.76505 18020 ft 395 kts 290°
2026-05-06 16:21 53.65069 -3.80818 18021 ft 395 kts 291°
2026-05-06 16:21 53.66078 -3.85119 18019 ft 395 kts 291°
2026-05-06 16:21 53.67097 -3.89417 18026 ft 395 kts 291°
2026-05-06 16:22 53.68116 -3.93705 18024 ft 395 kts 291°
2026-05-06 16:22 53.69148 -3.98011 18026 ft 395 kts 291°
2026-05-06 16:22 53.70190 -4.02293 18024 ft 395 kts 291°
2026-05-06 16:22 53.71187 -4.06606 18023 ft 394 kts 287°
2026-05-06 16:23 53.71827 -4.11106 18025 ft 394 kts 278°
2026-05-06 16:23 53.72049 -4.15712 18033 ft 394 kts 273°
2026-05-06 16:23 53.72189 -4.20330 18028 ft 394 kts 273°
2026-05-06 16:23 53.72329 -4.24948 18025 ft 394 kts 273°
2026-05-06 16:24 53.72479 -4.29576 18025 ft 394 kts 273°
2026-05-06 16:24 53.72639 -4.34200 18026 ft 394 kts 274°
2026-05-06 16:24 53.72803 -4.38814 18029 ft 395 kts 273°
2026-05-06 16:24 53.72966 -4.43442 18030 ft 395 kts 273°
2026-05-06 16:25 53.73128 -4.48076 18029 ft 395 kts 273°
2026-05-06 16:25 53.73287 -4.52690 18027 ft 395 kts 273°
2026-05-06 16:25 53.73446 -4.57332 18027 ft 395 kts 273°
2026-05-06 16:25 53.73603 -4.61963 18027 ft 395 kts 273°
2026-05-06 16:26 53.73757 -4.66582 18028 ft 395 kts 273°
2026-05-06 16:26 53.73911 -4.71214 18022 ft 395 kts 273°
2026-05-06 16:26 53.74064 -4.75847 18023 ft 395 kts 273°
2026-05-06 16:26 53.74214 -4.80474 18023 ft 395 kts 273°
2026-05-06 16:27 53.74362 -4.85099 18023 ft 395 kts 273°
2026-05-06 16:27 53.74513 -4.89669 18017 ft 395 kts 273°
2026-05-06 16:27 53.74669 -4.94360 18019 ft 395 kts 273°
2026-05-06 16:27 53.74822 -4.98988 18022 ft 395 kts 273°
2026-05-06 16:28 53.74972 -5.03615 18022 ft 395 kts 273°
2026-05-06 16:28 53.75118 -5.08182 18020 ft 395 kts 273°
2026-05-06 16:28 53.75099 -5.12809 18015 ft 395 kts 265°
2026-05-06 16:28 53.74656 -5.17378 18017 ft 395 kts 256°
2026-05-06 16:29 53.73810 -5.21794 18027 ft 396 kts 252°
2026-05-06 16:29 53.72894 -5.26171 18016 ft 396 kts 251°
2026-05-06 16:29 53.71974 -5.30569 18012 ft 396 kts 251°
2026-05-06 16:29 53.71070 -5.34939 17775 ft 390 kts 252°
2026-05-06 16:30 53.70198 -5.39202 17496 ft 378 kts 252°
2026-05-06 16:30 53.69911 -5.40616 17340 ft 375 kts 252°
2026-05-06 16:30 53.68502 -5.47530 16173 ft 375 kts 252°
2026-05-06 16:30 53.67702 -5.51713 15460 ft 375 kts 256°
2026-05-06 16:31 53.67126 -5.55994 14820 ft 373 kts 259°
2026-05-06 16:31 53.66605 -5.60278 14181 ft 372 kts 259°
2026-05-06 16:31 53.66083 -5.64538 13526 ft 371 kts 259°
2026-05-06 16:31 53.65543 -5.68779 12835 ft 369 kts 258°
2026-05-06 16:32 53.64990 -5.72995 12151 ft 368 kts 258°
2026-05-06 16:32 53.64433 -5.77199 11482 ft 367 kts 258°
2026-05-06 16:32 53.63877 -5.81383 10836 ft 365 kts 258°
2026-05-06 16:32 53.63320 -5.85558 10195 ft 364 kts 258°
2026-05-06 16:33 53.62773 -5.89647 9511 ft 353 kts 258°
2026-05-06 16:33 53.62241 -5.93619 8812 ft 342 kts 258°
2026-05-06 16:33 53.61724 -5.97474 8135 ft 333 kts 258°
2026-05-06 16:34 53.60891 -6.03668 7046 ft 321 kts 258°
2026-05-06 16:34 53.60403 -6.07293 6397 ft 314 kts 257°
2026-05-06 16:34 53.59926 -6.10819 5984 ft 301 kts 258°
2026-05-06 16:34 53.59473 -6.14153 5833 ft 284 kts 258°
2026-05-06 16:35 53.59043 -6.17323 5694 ft 274 kts 258°
2026-05-06 16:35 53.58623 -6.20412 5523 ft 267 kts 258°
2026-05-06 16:35 53.58075 -6.24437 5301 ft 262 kts 258°
2026-05-06 16:35 53.57805 -6.26413 5184 ft 261 kts 258°
2026-05-06 16:36 53.57399 -6.29375 5073 ft 260 kts 258°
2026-05-06 16:36 53.56993 -6.32333 5012 ft 258 kts 258°
2026-05-06 16:36 53.56589 -6.35268 5007 ft 258 kts 258°
2026-05-06 16:36 53.56204 -6.38222 4992 ft 258 kts 262°
2026-05-06 16:37 53.55968 -6.41172 4982 ft 249 kts 264°
2026-05-06 16:37 53.55786 -6.43994 4972 ft 237 kts 265°
2026-05-06 16:37 53.55611 -6.46698 4976 ft 230 kts 265°
2026-05-06 16:37 53.55435 -6.49354 4983 ft 228 kts 264°
2026-05-06 16:38 53.55251 -6.52032 4755 ft 236 kts 264°
2026-05-06 16:38 53.55060 -6.54722 4859 ft 228 kts 264°
2026-05-06 16:38 53.54871 -6.57365 4787 ft 229 kts 264°
2026-05-06 16:38 53.54679 -6.60040 4677 ft 232 kts 264°
2026-05-06 16:39 53.54486 -6.62720 4544 ft 229 kts 264°
2026-05-06 16:39 53.53961 -6.65165 4470 ft 222 kts 233°
2026-05-06 16:39 53.52763 -6.66766 4473 ft 223 kts 204°
2026-05-06 16:39 53.51265 -6.67383 4501 ft 222 kts 188°
2026-05-06 16:40 53.49768 -6.67629 4476 ft 214 kts 186°
2026-05-06 16:40 53.48326 -6.67827 4452 ft 205 kts 184°
2026-05-06 16:40 53.46938 -6.67425 4466 ft 203 kts 150°
2026-05-06 16:40 53.45962 -6.65776 4493 ft 203 kts 114°
2026-05-06 16:41 53.45629 -6.63482 4437 ft 208 kts 93°
2026-05-06 16:41 53.45504 -6.61027 4247 ft 211 kts 93°
2026-05-06 16:41 53.45374 -6.58578 3947 ft 210 kts 93°
2026-05-06 16:41 53.45243 -6.56139 3648 ft 210 kts 93°
2026-05-06 16:42 53.45110 -6.53713 3363 ft 208 kts 93°
2026-05-06 16:42 53.44981 -6.51348 3073 ft 198 kts 93°
2026-05-06 16:42 53.44862 -6.49100 2764 ft 189 kts 92°
2026-05-06 16:42 53.44748 -6.46968 2480 ft 178 kts 93°
2026-05-06 16:43 53.44642 -6.44942 2228 ft 171 kts 93°
2026-05-06 16:43 53.44539 -6.42968 1976 ft 166 kts 93°
2026-05-06 16:43 53.44441 -6.41116 1694 ft 155 kts 94°
2026-05-06 16:43 53.44352 -6.39373 1548 ft 146 kts 94°
2026-05-06 16:44 53.44255 -6.37677 1354 ft 147 kts 95°
2026-05-06 16:44 53.44153 -6.35954 1135 ft 151 kts 94°
2026-05-06 16:44 53.44052 -6.34167 921 ft 156 kts 97°
2026-05-06 16:44 53.43953 -6.32347 732 ft 156 kts 96°
2026-05-06 16:45 53.43853 -6.30572 483 ft 150 kts 98°
2026-05-06 16:45 53.43762 -6.28860 328 ft 144 kts 98°
2026-05-06 16:45 53.43661 -6.27193 218 ft 138 kts 95°
2026-05-06 16:45 53.43603 -6.25947 225 ft 73 kts 95°
2026-05-06 16:46 53.43538 -6.25256 219 ft 46 kts 115°
2026-05-06 16:46 53.43463 -6.25035 221 ft 10 kts 123°
2026-05-06 16:46 53.43402 -6.25002 223 ft 5 kts 211°
2026-05-06 16:46 53.43383 -6.25094 219 ft 13 kts 269°
2026-05-06 16:47 53.43394 -6.25284 218 ft 20 kts 278°
2026-05-06 16:47 53.43403 -6.25479 219 ft 20 kts 275°
2026-05-06 16:47 53.43369 -6.25650 218 ft 15 kts 178°
2026-05-06 16:47 53.43258 -6.25594 220 ft 17 kts 163°
2026-05-06 16:48 53.43151 -6.25516 222 ft 17 kts 156°
2026-05-06 16:48 53.43050 -6.25444 225 ft 14 kts 157°
2026-05-06 16:48 53.42968 -6.25384 225 ft 11 kts 152°
2026-05-06 16:48 53.42954 -6.25272 221 ft 11 kts 70°
2026-05-06 16:49 53.42962 -6.25146 220 ft 11 kts 96°
2026-05-06 16:49 53.42967 -6.25074 220 ft 2 kts 40°
2026-05-06 16:49 53.42986 -6.25075 220 ft 6 kts 354°
2026-05-06 16:49 53.43013 -6.25074 222 ft 0 kts
2026-05-06 16:50 53.43017 -6.25073 223 ft 1 kts
2026-05-06 16:50 53.43029 -6.25072 223 ft 0 kts
2026-05-06 16:50 53.43023 -6.25073 223 ft 1 kts
2026-05-06 16:50 53.43027 -6.25073 223 ft 0 kts
2026-05-06 16:51 53.43027 -6.25072 223 ft 0 kts
2026-05-06 17:00 53.43028 -6.25073 223 ft 0 kts